This demonstration page uses our WeatherBlox Daily Observations layout. Learn more.

38.88101, -77.10428

Hourly Observations for March 28, 2020

Temp ( °F °C ) Dew Point ( °F °C ) Humidity (%) Winds ( mph kmh ) Pressure ( in mb ) Visibility ( mi km ) Precip ( " mm )
12:52 am 00:52 Cloudy 57 13.9 52 11.1 83 83 Calm 30.01 1016 10 16.0934 0.01 0.254
1:52 am 01:52 Cloudy 58 14.4 53 11.7 84 84 NNW 3 6 30.03 1017 10 16.0934 0 0
2:16 am 02:16 Cloudy with Light Thunderstorms 57 13.9 54 12.2 90 90 W 3 6 30.03 1017 6 9.65604 0.001 0.001
2:35 am 02:35 Cloudy with Light Rain 57 13.9 53 11.7 87 87 Calm 30.03 1017 10 16.0934 0.06 1.524
2:52 am 02:52 Cloudy with Light Rain 56 13.3 53 11.7 90 90 Calm 30.03 1017 9 14.48406 0.07 1.778
2:57 am 02:57 Cloudy with Light Thunderstorms 56 13.3 53 11.7 90 90 NNW 3 6 30.04 1017 10 16.0934 0.001 0.001
3:08 am 03:08 Cloudy with Heavy Thunderstorms 56 13.3 53 11.7 90 90 SSW 3 6 30.04 1017 3 4.82802 0.03 0.762
3:28 am 03:28 Cloudy with Light Rain 55 12.8 54 12.2 96 96 S 5 7 30.02 1017 7 11.26538 0.1 2.54
3:52 am 03:52 Cloudy 55 12.8 53 11.7 93 93 S 5 7 30.01 1016 10 16.0934 0.1 2.54
4:52 am 04:52 Cloudy 55 12.8 52 11.1 90 90 Calm 30 1016 10 16.0934 0.01 0.254
5:52 am 05:52 Cloudy with Rain 55 12.8 53 11.7 93 93 ENE 7 11 30.01 1016 4 6.43736 0.08 2.032
6:52 am 06:52 Cloudy with Light Rain 55 12.8 54 12.2 96 96 NE 6 9 30.03 1017 4 6.43736 0.03 0.762
7:11 am 07:11 Cloudy with Light Rain 55 12.8 54 12.2 96 96 E 5 7 30.02 1017 2.5 4.02335 0.01 0.254
7:22 am 07:22 Cloudy with Light Rain 55 12.8 54 12.2 96 96 ESE 3 6 30.03 1017 3 4.82802 0.02 0.508
7:24 am 07:24 Cloudy with Light Rain 55 12.8 54 12.2 96 96 ESE 3 6 30.03 1017 3 4.82802 0.02 0.508
7:52 am 07:52 Cloudy with Light Drizzle 55 12.8 53 11.7 93 93 E 5 7 30.03 1017 6 9.65604 0.02 0.508
7:55 am 07:55 Cloudy 55 12.8 53 11.7 93 93 E 5 7 30.04 1017 7 11.26538 0.001 0.001
8:17 am 08:17 Cloudy with Thunderstorms 55 12.8 53 11.7 93 93 N 6 9 30.09 1019 5 8.0467 0.02 0.508
8:24 am 08:24 Cloudy with Heavy Thunderstorms 54 12.2 53 11.7 97 97 NE 7 11 30.05 1018 2.5 4.02335 0.08 2.032
8:28 am 08:28 Cloudy with Heavy Thunderstorms 54 12.2 53 11.7 97 97 E 12 19 30.02 1017 1.75 2.816345 0.12 3.048
8:35 am 08:35 Cloudy with Nearby Thunderstorms 54 12.2 52 11.1 93 93 ESE 13 20 30 1016 2.5 4.02335 0.15 3.81
8:38 am 08:38 Cloudy with Light Rain 54 12.2 52 11.1 93 93 ESE 13 20 30 1016 4 6.43736 0.15 3.81
8:46 am 08:46 Mostly Cloudy with Light Rain 54 12 52 11 94 94 ESE 9 15 30 1016 8 12.87472 0.15 3.81
8:52 am 08:52 Mostly Cloudy 54 12.2 52 11.1 93 93 ESE 10 17 29.99 1016 10 16.0934 0.15 3.81
9:29 am 09:29 Cloudy 56 13.3 53 11.7 90 90 NE 9 15 30.02 1017 10 16.0934 0 0
9:32 am 09:32 Cloudy 56 13.3 53 11.7 90 90 ENE 8 13 30.02 1017 10 16.0934 0 0
9:36 am 09:36 Cloudy 56 13.3 53 11.7 90 90 ENE 7 11 30.02 1017 10 16.0934 0 0
9:52 am 09:52 Cloudy 56 13.3 52 11.1 87 87 E 12 19 30.01 1016 10 16.0934 0 0
10:25 am 10:25 Cloudy 55 12.8 52 11.1 90 90 E 9 15 30.01 1016 10 16.0934 0 0
10:52 am 10:52 Cloudy 56 13.3 53 11.7 90 90 ESE 7 11 30 1016 10 16.0934 0 0
11:52 am 11:52 Cloudy 56 13.3 52 11.1 87 87 SSE 5 7 29.99 1016 10 16.0934 0 0
12:18 pm 12:18 Cloudy with Light Drizzle 56 13.3 53 11.7 90 90 E 5 7 30 1016 5 8.0467 0.001 0.001
12:38 pm 12:38 Cloudy 56 13.3 53 11.7 90 90 E 6 9 29.99 1016 9 14.48406 0.001 0.001
12:52 pm 12:52 Cloudy 56 13.3 53 11.7 90 90 ESE 6 9 30 1016 10 16.0934 0.001 0.001
1:52 pm 13:52 Cloudy 57 13.9 54 12.2 90 90 E 3 6 29.98 1015 10 16.0934 0 0
2:06 pm 14:06 Cloudy 57 13.9 54 12.2 90 90 E 3 6 29.97 1015 10 16.0934 0 0
2:25 pm 14:25 Cloudy 57 13.9 54 12.2 90 90 E 7 11 29.96 1015 10 16.0934 0 0
2:52 pm 14:52 Cloudy 58 14.4 54 12.2 87 87 E 7 11 29.94 1014 10 16.0934 0 0
3:52 pm 15:52 Cloudy 58 14.4 54 12.2 87 87 E 8 13 29.92 1013 10 16.0934 0 0
4:52 pm 16:52 Cloudy 59 15 54 12.2 83 83 E 7 11 29.91 1013 10 16.0934 0 0
5:20 pm 17:20 Cloudy 59 15 53 11.7 81 81 E 9 15 29.93 1014 10 16.0934 0 0
5:52 pm 17:52 Cloudy 59 15 53 11.7 81 81 E 8 13 29.92 1013 10 16.0934 0 0
6:31 pm 18:31 Cloudy 55 12.8 53 11.7 93 93 NE 12 19 29.96 1015 10 16.0934 0 0
6:40 pm 18:40 Cloudy 55 12.8 53 11.7 93 93 NE 14 22 29.96 1015 9 14.48406 0 0
6:44 pm 18:44 Cloudy 55 12.8 53 11.7 93 93 NE 13 20 29.96 1015 8 12.87472 0 0
6:52 pm 18:52 Cloudy 54 12.2 52 11.1 93 93 NE 13 20 29.96 1015 7 11.26538 0 0
7:52 pm 19:52 Cloudy 54 12.2 52 11.1 93 93 NE 8 13 29.98 1015 10 16.0934 0 0
8:52 pm 20:52 Cloudy with Mist and Fog 52 11.1 51 10.6 97 97 N 17 28 30.02 1017 6 9.65604 0 0
9:23 pm 21:23 Cloudy 52 11.1 50 10 93 93 NNE 12 19 30.01 1016 10 16.0934 0 0
9:34 pm 21:34 Cloudy 52 11.1 50 10 93 93 NNE 14 22 30.01 1016 10 16.0934 0 0
9:52 pm 21:52 Cloudy 52 11.1 50 10 93 93 NE 13 20 29.99 1016 10 16.0934 0 0
10:52 pm 22:52 Cloudy 52 11.1 50 10 93 93 ENE 9 15 29.97 1015 9 14.48406 0 0
11:52 pm 23:52 Cloudy 52 11.1 50 10 93 93 ENE 7 11 29.96 1015 8 12.87472 0 0

Powered by AerisWeather